Regional Weather Roundup
Issued by NWS

Home | Current Version | Previous Version | Graphics & Text | Print | Product List | Glossary On
Versions: 1 2 3 4 5 6 7 8 9 10 11 12 13 14 15 16 17 18 19 20 21 22 23 24 25 26 27 28 29 30 31 32 33 34 35 36 37 38 39 40 41 42 43 44 45 46 47 48 49 50
000
ASUS43 KMKX 150524
RWRWI

WISCONSIN REGIONAL WEATHER ROUNDUP
NATIONAL WEATHER SERVICE MILWAUKEE/SULLIVAN WI
1200 AM CDT MON SEP 15 2014

NOTE: "FAIR" INDICATES FEW OR NO CLOUDS BELOW 12,000 FEET WITH NO
SIGNIFICANT WEATHER AND/OR OBSTRUCTIONS TO VISIBILITY.

WIZ001-002-006>008-014>016-023>028-150600-
NORTHWEST WISCONSIN

CITY           SKY/WX    TMP DP  RH WIND       PRES   REMARKS
SUPERIOR ARPT  CLEAR     40  40  98 CALM      30.11S
ASHLAND        CLEAR     45  42  89 W6        30.10S
HAYWARD        CLEAR     40  38  93 CALM      30.13R
SIREN          PTCLDY    43  41  93 CALM      30.14R
RICE LAKE      MOCLDY    47  44  90 CALM      30.15R
LADYSMITH      PTCLDY    45  43  94 CALM      30.14S
EAU CLAIRE     CLOUDY    51  44  77 SW5       30.14R
MENOMONIE      CLOUDY    53  45  74 W6        30.14R
NEW RICHMOND   CLOUDY    48  46  92 CALM      30.15S
OSCEOLA        CLOUDY    47  47 100 CALM      30.17S
$$

WIZ003>005-009-010-017-018-150600-
NORTH CENTRAL WISCONSIN

CITY           SKY/WX    TMP DP  RH WIND       PRES   REMARKS
WOODRUFF       PTCLDY    42  40  93 CALM      30.10S
RHINELANDER    MOCLDY    42  40  92 W5        30.12R
EAGLE RIVER    PTCLDY    39  39 100 CALM      30.09R
LAND O LAKES   CLEAR     41  41  99 W3        30.09F
PHILLIPS       PTCLDY    40  40 100 CALM      30.11S FOG
TOMAHAWK       MOCLDY    40  39  95 CALM      30.12S
MEDFORD        MOCLDY    46  43  89 CALM      30.12S
MERRILL        MOCLDY    47  44  89 NW3       30.12R
$$

WIZ029-030-035-036-043>047-150600-
CENTRAL WISCONSIN

CITY           SKY/WX    TMP DP  RH WIND       PRES   REMARKS
WAUSAU         CLOUDY    51  44  77 NW3       30.11R
MOSINEE        CLOUDY    48  45  87 SW6       30.13R
MARSHFIELD     CLOUDY    51  45  79 SW7       30.13R
STEVENS POINT  CLOUDY    53  43  68 SW3       30.13S
WAUPACA        LGT RAIN  57  52  84 CALM      30.13S
WAUTOMA        CLOUDY    55  51  86 CALM      30.14R
WISC RAPIDS    LGT RAIN  54  48  80 W6        30.15R
CAMP DOUGLAS   CLOUDY    53  53 100 W2        30.14R
$$

WIZ011>013-019>022-031-037>040-048>050-150600-
NORTHEAST WISCONSIN

CITY           SKY/WX    TMP DP  RH WIND       PRES   REMARKS
ANTIGO         MOCLDY    48  44  86 NW6       30.11S
STURGEON BAY   CLOUDY    55  48  76 SW7       30.10R
GREEN BAY      CLOUDY    57  50  77 SW6       30.11R
MANITOWOC      LGT RAIN  57  51  80 SW8       30.12R
APPLETON       RAIN      55  48  76 SW9       30.13R
CLINTONVILLE   CLOUDY    54  46  76 W5        30.11R
OSHKOSH        CLOUDY    57  49  74 CALM      30.12R
$$

WIZ032>034-041-042-053>061-150600-
SOUTHWEST WISCONSIN

CITY           SKY/WX    TMP DP  RH WIND       PRES   REMARKS
LA CROSSE      CLOUDY    58  52  80 CALM      30.14R
SPARTA         CLOUDY    54  52  91 CALM      30.15S
VIROQUA        FAIR      53  53  98 CALM      30.14S
BOSCOBEL       PTCLDY    50  47  89 CALM      30.15S
PRAIRIE DU CHI PTCLDY    52  49  89 CALM      30.14S
PLATTEVILLE    FAIR      51  47  88 CALM      30.17R
$$

WIZ056-057-062-063-064-067-068-150600-
SOUTH CENTRAL WISCONSIN

CITY           SKY/WX    TMP DP  RH WIND       PRES   REMARKS
BARABOO/DELLS  CLOUDY    56  47  71 W6        30.13S
LONE ROCK      MOCLDY    53  46  77 CALM      30.14S
WATERTOWN      PTCLDY    48  47  95 CALM      30.14F
MADISON        PTCLDY    57  47  69 S5        30.15S
MIDDLETON      FAIR      56  46  70 SW8       30.14F
MONROE         MOCLDY    54  46  76 SW8       30.15S
JANESVILLE     MOCLDY    54  46  76 CALM      30.15F
$$

WIZ051-052-058>065-066-070>072-150600-
SOUTHEAST WISCONSIN

CITY           SKY/WX    TMP DP  RH WIND       PRES   REMARKS
MILWAUKEE      PTCLDY    54  46  74 SW7       30.17R
WAUKESHA       PTCLDY    50  45  81 SW6       30.17S
MILWAUKEE/TIMM PTCLDY    52  43  71 SW5       30.16S
RACINE         PTCLDY    54  46  74 SW7       30.17F
BURLINGTON     PTCLDY    46  45  95 CALM      30.16S
KENOSHA        PTCLDY    53  47  79 SW7       30.17F
FOND DU LAC    CLOUDY    57  47  69 SW9       30.13R
SHEBOYGAN      CLOUDY    56  47  71 SW9       30.13S
WEST BEND      CLOUDY    55  43  62 SW7       30.14S
JUNEAU         MOCLDY    53  47  81 S9        30.15F
$$

LSZ147-162-150600-
LAKE SUPERIOR

STATION/POSITION TIME  TEMP    WIND        PRES    WAVE
                       AIR SEA DIR/SP/G            HT/PER
                 (UTC) (F)     (DEG/KT/KT) (MB)    (FT/S)
W MID LAKE BUOY  0450   49 47  260/ 10/ 10 1018.0R   2/ 4
DEVILS ISLAND    0500   52     280/  9/ 10 1018.9S
PORT WING        0400   49     190/  5/  6 1019.3
SAXON HARBOR     0400   51     210/  5/  8 1019.0R
$$

LMZ867-665-643>646-150600-
LAKE MICHIGAN

STATION/POSITION TIME  TEMP    WIND        PRES    WAVE
                       AIR SEA DIR/SP/G            HT/PER
                 (UTC) (F)     (DEG/KT/KT) (MB)    (FT/S)
N MID LAKE BUOY  0450   57 57  240/ 12/ 16 1018.0R   5/ 7
NORTHPORT PIER   0500   57     290/  6/ 11 1018.6R
KEWAUNEE LAKESHO 0400   56     250/  4/  6 1018.3R
SHEBOYGAN LAKESH 0500   59 51  230/ 11/ 12 1020.4F
PORT WASHINGTON  0440   57     260/  5/  8 1021.0S
MILWAUKEE LAKESH 0500   58     220/  8/  9   N/A
S MID LAKE BUOY  0450   64 64  230/ 14/ 16 1021.5F   1/ 3
KENOSHA   LAKESH 0500   57     220/  6/  9 1021.0F
$$

TC  - TEMPERATURE IN CELSIUS
VSB - VISIBILITY IN STATUTE MILES
WCI - WIND CHILL INDEX
HX  - HEAT INDEX




USA.gov is the U.S. government's official web portal to all federal, state and local government web resources and services.